Temp
-8 -8 -8 -7 -7 -7 -7 -7 -7 -7 -7 -7 -7 -7 -7 -7 -7 -7 -7 -8 -8 -8 -7 -7 -8 -8 -8 -8 -8 -7 -7 -8 -8 -8 -8 -8 -8 -8 -8 -8 -8 -8 -8 -8 -8 -8 -8 -8 -8 -9 -9 -9 -10 -10 -10 -10 -10 -10 -10 -10 -10 -10 -10 -10 -10 -9 -9 -9 -9 -9 -9 -8 -8 -8
-8 -7 -7 -7 -7 -7 -7 -7 -7 -7 -7 -7 -7 -7 -7 -7 -7 -7 -7 -8 -8 -7 -7 -7 -8 -8 -8 -8 -7 -7 -8 -8 -8 -8 -8 -8 -8 -8 -8 -8 -8 -8 -8 -8 -8 -8 -8 -8 -9 -9 -9 -9 -9 -10 -10 -10 -11 -11 -11 -10 -10 -10 -10 -10 -10 -10 -10 -10 -9 -9 -9 -9 -9 -9
-8 -7 -8 -8 -8 -7 -7 -7 -7 -7 -7 -7 -7 -7 -7 -7 -7 -7 -7 -7 -7 -7 -8 -8 -8 -8 -7 -7 -7 -8 -8 -8 -8 -8 -8 -8 -8 -8 -8 -8 -9 -9 -9 -9 -9 -9 -9 -9 -9 -9 -9 -9 -9 -10 -10 -11 -11 -11 -11 -11 -11 -11 -10 -10 -10 -10 -10 -10 -10 -10 -10 -9 -9 -9
-8 -7 -8 -8 -8 -8 -8 -8 -7 -7 -7 -7 -7 -8 -7 -7 -7 -7 -7 -7 -7 -8 -8 -8 -8 -8 -8 -8 -8 -8 -8 -8 -8 -8 -8 -8 -8 -9 -9 -9 -9 -9 -9 -9 -9 -9 -9 -9 -9 -9 -9 -9 -9 -10 -10 -10 -11 -11 -11 -11 -11 -11 -11 -11 -11 -10 -10 -10 -10 -10 -10 -10 -10 -10
-8 -8 -8 -8 -8 -8 -8 -8 -8 -8 -8 -8 -8 -7 -7 -7 -7 -8 -8 -8 -8 -8 -8 -8 -8 -8 -8 -8 -8 -8 -8 -8 -8 -8 -8 -9 -9 -9 -9 -9 -9 -9 -9 -9 -9 -9 -9 -10 -10 -10 -10 -10 -10 -10 -10 -10 -11 -11 -11 -12 -12 -12 -12 -12 -12 -11 -11 -11 -11 -11 -11 -11 -10 -10
-8 -8 -8 -8 -8 -8 -8 -8 -8 -8 -8 -8 -7 -7 -7 -7 -7 -8 -8 -8 -8 -8 -8 -8 -8 -8 -8 -8 -8 -8 -8 -8 -8 -9 -9 -9 -9 -9 -9 -9 -10 -10 -10 -10 -10 -10 -10 -10 -10 -10 -10 -10 -10 -10 -10 -10 -10 -11 -11 -12 -12 -12 -12 -12 -12 -12 -12 -12 -12 -11 -11 -11 -11 -11
-8 -8 -8 -8 -8 -8 -8 -8 -8 -7 -8 -8 -8 -7 -7 -7 -7 -7 -8 -8 -8 -8 -8 -8 -8 -8 -8 -8 -8 -8 -9 -9 -9 -9 -9 -9 -9 -9 -10 -10 -10 -10 -10 -10 -10 -10 -10 -10 -10 -10 -10 -10 -11 -11 -10 -11 -11 -11 -11 -11 -12 -12 -12 -12 -12 -12 -12 -12 -12 -12 -12 -12 -12 -11
-8 -8 -8 -8 -8 -8 -8 -8 -8 -7 -8 -8 -8 -7 -7 -7 -7 -7 -7 -7 -8 -8 -8 -8 -8 -8 -8 -8 -8 -8 -9 -9 -9 -9 -9 -9 -9 -10 -10 -10 -10 -10 -10 -10 -10 -10 -10 -11 -11 -11 -11 -11 -11 -11 -11 -11 -11 -12 -12 -12 -12 -12 -12 -12 -12 -12 -12 -12 -12 -12 -12 -12 -12 -12
-8 -8 -8 -8 -8 -8 -8 -8 -8 -8 -8 -8 -8 -8 -7 -7 -7 -7 -7 -8 -8 -8 -8 -8 -8 -8 -8 -8 -8 -8 -8 -8 -8 -9 -9 -9 -9 -9 -10 -10 -10 -10 -11 -11 -11 -11 -11 -11 -11 -11 -12 -12 -11 -11 -11 -11 -12 -12 -12 -12 -12 -12 -12 -12 -12 -12 -12 -12 -12 -12 -12 -12 -12 -12
-8 -8 -8 -8 -8 -8 -8 -8 -8 -8 -8 -8 -8 -8 -7 -7 -7 -7 -7 -8 -8 -8 -8 -8 -8 -8 -8 -8 -8 -8 -8 -8 -8 -9 -9 -9 -9 -9 -10 -10 -10 -10 -11 -11 -11 -11 -11 -11 -12 -12 -12 -12 -12 -12 -12 -12 -12 -12 -13 -13 -13 -12 -12 -12 -12 -12 -12 -12 -12 -12 -12 -12 -12 -12
-8 -8 -8 -9 -8 -8 -9 -9 -9 -9 -9 -8 -8 -8 -8 -8 -8 -8 -8 -8 -8 -8 -8 -8 -9 -9 -9 -8 -8 -8 -8 -8 -9 -9 -9 -9 -10 -10 -10 -10 -10 -11 -11 -11 -11 -11 -11 -12 -12 -12 -12 -13 -13 -13 -13 -13 -13 -13 -13 -13 -13 -12 -12 -12 -12 -12 -12 -12 -13 -13 -13 -12 -12 -12
-8 -8 -9 -9 -8 -8 -9 -9 -9 -9 -9 -9 -8 -8 -8 -8 -8 -8 -8 -8 -8 -8 -8 -9 -9 -9 -9 -9 -8 -8 -8 -8 -9 -9 -9 -10 -10 -10 -10 -11 -11 -11 -11 -12 -12 -12 -12 -12 -12 -13 -13 -13 -13 -13 -13 -13 -13 -13 -13 -13 -13 -13 -13 -13 -13 -13 -13 -13 -13 -13 -13 -13 -13 -13
-8 -9 -9 -9 -9 -9 -9 -9 -9 -9 -9 -9 -9 -8 -8 -8 -8 -8 -8 -8 -8 -8 -9 -9 -9 -9 -9 -9 -8 -8 -9 -9 -9 -9 -10 -10 -10 -10 -11 -11 -11 -11 -12 -12 -12 -13 -13 -13 -13 -13 -13 -13 -13 -13 -13 -14 -13 -13 -13 -13 -13 -13 -13 -13 -13 -13 -13 -13 -13 -13 -13 -13 -13 -13
-9 -9 -9 -9 -9 -9 -9 -9 -9 -9 -9 -9 -9 -9 -9 -9 -8 -8 -8 -8 -8 -9 -9 -9 -9 -9 -9 -9 -9 -9 -9 -9 -9 -10 -10 -10 -10 -11 -11 -12 -12 -12 -12 -12 -13 -13 -13 -13 -13 -14 -14 -14 -14 -14 -14 -14 -14 -14 -14 -14 -14 -13 -13 -13 -13 -13 -13 -13 -13 -13 -13 -13 -13 -13
-9 -9 -9 -9 -9 -9 -9 -9 -9 -9 -9 -9 -9 -9 -9 -9 -9 -8 -8 -8 -9 -9 -9 -9 -9 -9 -9 -9 -9 -9 -9 -10 -10 -10 -10 -10 -11 -11 -11 -12 -12 -13 -13 -13 -13 -13 -14 -14 -14 -14 -14 -14 -14 -14 -14 -14 -14 -14 -14 -14 -14 -14 -14 -14 -14 -14 -13 -13 -13 -13 -13 -13 -13 -13
-9 -9 -9 -9 -9 -10 -9 -9 -9 -9 -9 -9 -9 -9 -9 -9 -9 -9 -9 -9 -9 -9 -9 -9 -9 -9 -9 -9 -9 -9 -10 -10 -10 -10 -10 -10 -11 -11 -11 -12 -12 -13 -13 -13 -13 -13 -14 -14 -14 -14 -14 -14 -14 -14 -14 -14 -14 -14 -14 -14 -14 -14 -14 -14 -14 -14 -14 -14 -14 -13 -13 -13 -13 -13
-9 -9 -9 -9 -10 -10 -10 -10 -9 -9 -9 -9 -9 -9 -9 -9 -9 -9 -9 -9 -9 -9 -9 -9 -9 -9 -9 -9 -9 -10 -10 -10 -10 -10 -10 -11 -11 -11 -12 -12 -13 -13 -13 -13 -13 -13 -14 -14 -14 -14 -14 -14 -14 -14 -14 -14 -14 -14 -14 -14 -15 -15 -15 -15 -14 -14 -14 -14 -14 -14 -14 -14 -14 -14
-9 -9 -9 -9 -10 -10 -10 -10 -9 -9 -9 -9 -9 -9 -9 -9 -9 -9 -9 -9 -9 -9 -9 -9 -9 -9 -9 -9 -9 -10 -10 -10 -10 -10 -10 -11 -11 -11 -12 -12 -13 -13 -13 -13 -13 -14 -14 -14 -14 -14 -15 -15 -15 -15 -15 -15 -15 -15 -15 -15 -15 -15 -15 -15 -15 -15 -15 -15 -15 -14 -14 -14 -14 -14
-9 -9 -9 -9 -10 -10 -10 -10 -9 -9 -9 -9 -9 -9 -9 -9 -9 -9 -9 -9 -9 -9 -9 -9 -9 -9 -9 -9 -9 -10 -10 -10 -10 -10 -10 -11 -11 -12 -12 -13 -13 -13 -13 -14 -14 -14 -14 -14 -14 -15 -15 -15 -15 -15 -15 -15 -15 -15 -15 -15 -15 -15 -15 -15 -15 -15 -15 -15 -15 -15 -15 -15 -15 -14
-9 -9 -9 -9 -10 -10 -10 -10 -10 -9 -9 -9 -10 -10 -9 -9 -9 -9 -9 -9 -9 -9 -9 -9 -9 -9 -9 -9 -9 -9 -10 -10 -10 -10 -10 -11 -11 -12 -12 -13 -13 -13 -14 -14 -14 -14 -15 -15 -15 -15 -15 -15 -15 -15 -15 -15 -15 -15 -15 -15 -15 -15 -15 -15 -15 -15 -15 -15 -16 -16 -15 -15 -15 -15
-9 -9 -9 -9 -10 -10 -10 -10 -10 -9 -9 -10 -10 -10 -9 -9 -9 -9 -9 -9 -9 -9 -9 -9 -9 -9 -9 -9 -9 -10 -10 -10 -10 -10 -11 -11 -12 -12 -13 -13 -13 -14 -14 -14 -14 -15 -15 -15 -15 -15 -15 -15 -15 -15 -15 -15 -15 -15 -15 -16 -16 -16 -16 -16 -16 -16 -16 -16 -16 -16 -16 -16 -16 -16
-9 -9 -9 -9 -10 -10 -10 -10 -9 -9 -9 -10 -10 -10 -9 -9 -9 -9 -9 -9 -9 -9 -9 -9 -9 -9 -9 -9 -10 -10 -10 -10 -10 -11 -11 -11 -12 -12 -13 -13 -14 -14 -14 -14 -14 -15 -15 -15 -15 -15 -15 -16 -16 -16 -16 -16 -16 -16 -16 -16 -17 -17 -17 -17 -17 -17 -17 -17 -17 -17 -16 -16 -16 -16
-9 -9 -9 -9 -10 -10 -9 -9 -9 -9 -9 -9 -10 -9 -9 -9 -9 -9 -9 -9 -9 -9 -9 -9 -9 -9 -9 -9 -10 -10 -10 -10 -10 -11 -11 -12 -12 -13 -13 -14 -14 -14 -14 -14 -15 -15 -15 -15 -15 -15 -16 -16 -16 -16 -16 -16 -16 -16 -17 -17 -17 -17 -17 -18 -18 -18 -18 -17 -17 -17 -17 -17 -17 -16
-9 -9 -9 -10 -10 -9 -9 -9 -9 -9 -9 -9 -9 -9 -9 -9 -9 -9 -9 -9 -9 -9 -9 -9 -9 -9 -9 -10 -10 -10 -10 -10 -11 -11 -11 -12 -12 -13 -13 -14 -14 -14 -14 -14 -15 -15 -15 -15 -16 -16 -16 -16 -16 -16 -17 -17 -17 -17 -17 -18 -18 -18 -18 -18 -18 -18 -18 -18 -18 -18 -17 -17 -17 -17
-9 -9 -9 -10 -10 -9 -9 -9 -9 -9 -9 -9 -9 -9 -9 -9 -9 -9 -9 -9 -9 -9 -9 -9 -9 -9 -9 -10 -10 -10 -10 -11 -11 -11 -12 -12 -13 -13 -13 -14 -14 -14 -14 -14 -15 -15 -15 -16 -16 -16 -16 -16 -16 -16 -17 -17 -18 -18 -18 -18 -18 -18 -18 -18 -18 -18 -18 -18 -18 -18 -18 -18 -18 -17
-9 -9 -9 -10 -10 -10 -9 -9 -9 -9 -9 -9 -9 -9 -9 -9 -9 -9 -9 -9 -9 -9 -9 -9 -9 -9 -10 -10 -10 -10 -10 -11 -11 -11 -12 -12 -13 -13 -14 -14 -14 -14 -14 -15 -15 -15 -15 -16 -16 -16 -16 -16 -16 -16 -17 -17 -18 -18 -18 -18 -18 -18 -18 -18 -18 -19 -18 -18 -18 -18 -18 -18 -18 -18
-9 -9 -9 -10 -10 -10 -10 -10 -10 -10 -10 -10 -9 -9 -9 -10 -10 -9 -9 -9 -9 -9 -9 -9 -9 -9 -10 -10 -10 -10 -10 -11 -11 -11 -12 -12 -13 -13 -14 -14 -14 -14 -14 -14 -15 -15 -15 -15 -16 -16 -16 -16 -16 -16 -17 -17 -18 -18 -18 -18 -18 -18 -18 -18 -18 -18 -18 -18 -18 -18 -18 -18 -18 -18
-9 -9 -9 -9 -10 -10 -10 -10 -10 -10 -10 -10 -10 -9 -10 -10 -10 -9 -9 -9 -9 -9 -9 -9 -9 -10 -10 -10 -10 -10 -10 -11 -11 -12 -12 -13 -13 -14 -14 -14 -14 -14 -14 -14 -14 -15 -15 -15 -16 -16 -16 -16 -16 -17 -17 -17 -17 -17 -18 -18 -18 -18 -18 -18 -18 -18 -18 -18 -18 -18 -18 -18 -18 -18
-9 -9 -9 -9 -9 -10 -10 -10 -10 -10 -10 -10 -10 -10 -10 -10 -10 -9 -9 -9 -9 -9 -9 -9 -9 -10 -10 -10 -10 -11 -11 -11 -11 -12 -12 -13 -13 -14 -14 -14 -14 -14 -14 -14 -14 -15 -15 -15 -16 -16 -16 -16 -16 -17 -17 -17 -17 -17 -17 -18 -18 -18 -18 -18 -18 -18 -18 -18 -18 -18 -18 -18 -18 -18
-9 -9 -9 -9 -9 -10 -10 -10 -10 -10 -10 -10 -10 -10 -10 -10 -10 -10 -9 -9 -9 -9 -9 -9 -10 -10 -10 -10 -11 -11 -11 -11 -12 -12 -12 -13 -13 -14 -14 -14 -14 -14 -14 -14 -15 -15 -15 -16 -16 -16 -17 -16 -16 -17 -17 -17 -17 -17 -17 -18 -18 -18 -18 -18 -18 -18 -18 -18 -18 -18 -18 -18 -18 -18
-9 -9 -9 -9 -9 -10 -10 -10 -10 -10 -10 -10 -10 -10 -10 -10 -10 -10 -9 -9 -9 -9 -9 -10 -10 -10 -10 -10 -11 -11 -11 -11 -12 -12 -13 -13 -14 -14 -14 -14 -14 -14 -14 -14 -15 -15 -15 -16 -16 -17 -17 -17 -17 -17 -17 -17 -17 -17 -18 -18 -18 -18 -18 -19 -19 -19 -19 -19 -18 -18 -18 -18 -18 -18
-9 -9 -9 -10 -10 -10 -10 -10 -10 -10 -10 -10 -10 -10 -10 -10 -10 -10 -10 -9 -9 -9 -9 -10 -10 -10 -10 -11 -11 -11 -11 -11 -12 -12 -13 -13 -14 -14 -14 -14 -14 -14 -15 -15 -15 -15 -16 -16 -16 -17 -17 -17 -17 -17 -17 -17 -17 -17 -17 -18 -18 -18 -18 -19 -19 -19 -19 -19 -19 -19 -18 -18 -18 -18
-10 -10 -10 -10 -10 -10 -10 -10 -10 -10 -10 -10 -10 -10 -10 -10 -10 -10 -10 -10 -10 -10 -10 -10 -10 -10 -10 -11 -11 -11 -11 -11 -12 -13 -13 -14 -14 -14 -14 -14 -14 -15 -15 -15 -15 -16 -16 -16 -16 -17 -17 -17 -17 -17 -17 -17 -17 -17 -17 -18 -18 -18 -19 -19 -19 -19 -19 -19 -19 -19 -19 -18 -18 -18
-10 -10 -10 -10 -10 -9 -10 -10 -10 -10 -10 -10 -10 -10 -10 -11 -10 -10 -10 -10 -10 -10 -10 -10 -10 -10 -10 -11 -11 -11 -11 -11 -12 -13 -13 -14 -14 -14 -14 -14 -14 -15 -15 -15 -15 -16 -16 -16 -17 -17 -17 -17 -17 -17 -17 -17 -17 -17 -17 -18 -18 -18 -19 -19 -19 -19 -19 -19 -19 -18 -18 -18 -18 -18
-10 -10 -10 -10 -9 -9 -10 -10 -10 -10 -10 -10 -10 -10 -10 -11 -11 -10 -10 -10 -10 -10 -10 -10 -10 -10 -10 -11 -11 -11 -11 -12 -12 -13 -13 -14 -14 -14 -14 -14 -15 -15 -15 -15 -15 -16 -16 -16 -16 -17 -17 -17 -17 -17 -17 -17 -17 -17 -18 -18 -18 -18 -19 -19 -19 -19 -19 -19 -19 -18 -18 -18 -18 -18
-10 -10 -10 -9 -9 -9 -9 -10 -10 -10 -10 -10 -10 -10 -10 -11 -11 -10 -10 -10 -10 -10 -10 -10 -10 -10 -11 -11 -11 -11 -11 -12 -13 -13 -13 -14 -14 -14 -14 -14 -15 -15 -15 -15 -15 -16 -16 -16 -16 -17 -17 -17 -17 -17 -17 -17 -17 -17 -18 -18 -18 -18 -19 -19 -19 -19 -19 -19 -19 -18 -18 -18 -18 -18
-9 -9 -9 -9 -9 -9 -9 -9 -10 -10 -10 -11 -10 -10 -11 -11 -11 -10 -10 -10 -10 -10 -10 -10 -10 -10 -11 -11 -11 -12 -12 -12 -13 -13 -14 -14 -14 -14 -14 -15 -15 -15 -15 -15 -15 -15 -16 -16 -16 -16 -17 -17 -17 -17 -18 -18 -17 -17 -18 -18 -18 -18 -18 -19 -19 -19 -19 -18 -18 -18 -18 -18 -18 -18
-9 -9 -9 -9 -9 -9 -9 -9 -10 -10 -10 -11 -11 -11 -11 -11 -11 -10 -10 -10 -10 -10 -10 -10 -10 -10 -11 -11 -12 -12 -12 -12 -13 -13 -14 -14 -14 -14 -14 -15 -15 -15 -15 -15 -15 -15 -16 -16 -16 -16 -16 -17 -17 -17 -17 -18 -18 -18 -18 -18 -18 -18 -18 -18 -18 -18 -18 -18 -18 -18 -18 -17 -17 -17
-9 -9 -9 -9 -9 -8 -9 -10 -10 -10 -10 -10 -10 -10 -11 -11 -11 -10 -10 -10 -10 -10 -10 -10 -10 -11 -11 -11 -12 -12 -12 -13 -13 -14 -14 -14 -14 -14 -14 -15 -15 -15 -15 -15 -15 -15 -15 -16 -16 -16 -16 -16 -17 -17 -17 -17 -18 -18 -18 -18 -18 -18 -18 -18 -18 -18 -18 -18 -18 -17 -17 -17 -17 -17
-9 -9 -9 -9 -8 -8 -9 -10 -10 -10 -10 -10 -10 -10 -11 -11 -10 -10 -10 -10 -10 -11 -10 -10 -11 -11 -11 -12 -12 -12 -12 -13 -13 -14 -14 -14 -14 -14 -15 -15 -15 -15 -15 -15 -15 -15 -15 -16 -16 -16 -16 -16 -16 -17 -17 -17 -18 -18 -18 -18 -18 -18 -18 -18 -18 -18 -18 -17 -17 -17 -17 -17 -16 -16
-9 -9 -9 -9 -8 -8 -9 -10 -10 -10 -10 -10 -10 -10 -11 -11 -10 -10 -10 -11 -11 -11 -11 -10 -11 -11 -11 -12 -12 -12 -13 -13 -13 -14 -14 -14 -14 -15 -15 -15 -15 -15 -15 -15 -15 -15 -15 -15 -16 -16 -16 -16 -16 -17 -17 -17 -17 -18 -18 -18 -18 -18 -18 -18 -18 -18 -18 -17 -17 -17 -16 -16 -16 -16
-8 -8 -9 -9 -9 -9 -9 -10 -10 -10 -10 -10 -10 -10 -11 -11 -11 -11 -11 -11 -11 -11 -11 -11 -11 -11 -11 -12 -12 -12 -13 -13 -14 -14 -14 -14 -14 -15 -15 -15 -15 -15 -15 -15 -15 -15 -15 -15 -16 -16 -16 -16 -16 -16 -17 -17 -17 -18 -18 -18 -18 -18 -18 -18 -18 -18 -18 -17 -17 -17 -16 -16 -16 -16
-8 -9 -9 -8 -8 -9 -9 -9 -9 -9 -10 -10 -10 -10 -10 -11 -11 -11 -11 -11 -11 -11 -11 -11 -11 -11 -12 -12 -12 -13 -13 -13 -14 -14 -14 -14 -14 -14 -15 -15 -15 -15 -15 -15 -15 -15 -15 -15 -15 -16 -16 -16 -16 -16 -17 -17 -17 -17 -18 -18 -18 -18 -18 -18 -18 -18 -18 -18 -17 -17 -17 -17 -16 -16
-9 -10 -9 -9 -9 -9 -9 -9 -9 -9 -10 -10 -10 -10 -11 -11 -11 -11 -11 -11 -11 -11 -11 -11 -11 -11 -12 -12 -12 -13 -13 -14 -14 -14 -14 -14 -14 -14 -15 -15 -15 -15 -15 -15 -15 -15 -15 -15 -15 -16 -16 -16 -16 -16 -17 -17 -17 -17 -17 -18 -18 -18 -18 -18 -18 -18 -18 -18 -18 -18 -17 -17 -17 -17
-9 -10 -10 -10 -10 -10 -10 -10 -10 -10 -10 -10 -10 -11 -11 -11 -11 -11 -11 -11 -11 -11 -11 -11 -11 -11 -12 -12 -13 -13 -13 -14 -14 -14 -14 -14 -14 -15 -15 -15 -15 -15 -15 -15 -15 -15 -15 -15 -15 -15 -16 -16 -16 -16 -16 -17 -17 -17 -17 -17 -17 -17 -18 -18 -18 -18 -18 -18 -18 -17 -17 -17 -17 -17
Height
5924 5923 5922 5922 5921 5920 5920 5919 5918 5917 5915 5914 5913 5912 5911 5910 5910 5909 5907 5906 5905 5904 5903 5902 5901 5899 5898 5897 5896 5895 5894 5893 5892 5891 5890 5889 5887 5886 5885 5884 5882 5880 5879 5877 5875 5873 5872 5870 5869 5867 5866 5864 5863 5863 5862 5862 5862 5862 5862 5861 5861 5861 5860 5860 5860 5860 5860 5861 5861 5861 5862 5862 5863 5863
5922 5921 5921 5920 5919 5918 5917 5916 5915 5914 5914 5913 5912 5911 5910 5909 5908 5907 5905 5904 5903 5902 5901 5900 5899 5898 5896 5895 5894 5893 5892 5891 5889 5888 5887 5885 5884 5882 5881 5879 5878 5876 5875 5873 5871 5869 5868 5866 5865 5863 5862 5860 5859 5858 5857 5856 5856 5856 5856 5856 5856 5856 5856 5856 5855 5856 5856 5856 5856 5856 5857 5858 5858 5859
5921 5920 5919 5918 5917 5916 5915 5914 5913 5913 5912 5911 5910 5909 5908 5907 5906 5905 5903 5902 5901 5900 5899 5899 5898 5896 5894 5893 5892 5891 5889 5888 5886 5885 5884 5883 5881 5879 5877 5875 5873 5872 5870 5869 5867 5865 5864 5862 5860 5859 5857 5856 5854 5853 5852 5851 5850 5850 5850 5850 5850 5851 5851 5851 5851 5851 5851 5851 5851 5851 5852 5852 5853 5854
5920 5919 5918 5917 5916 5915 5914 5913 5912 5911 5910 5909 5908 5907 5906 5905 5904 5903 5901 5900 5899 5899 5898 5897 5896 5895 5893 5891 5890 5889 5888 5886 5885 5883 5881 5879 5877 5875 5873 5871 5869 5867 5866 5864 5863 5861 5859 5858 5856 5854 5853 5851 5850 5848 5847 5845 5844 5844 5844 5844 5844 5844 5844 5845 5845 5845 5845 5846 5846 5846 5847 5847 5848 5849
5919 5918 5917 5916 5915 5914 5913 5912 5911 5909 5908 5908 5907 5906 5905 5904 5903 5901 5899 5898 5897 5896 5896 5895 5894 5892 5891 5889 5888 5887 5886 5884 5882 5880 5878 5876 5874 5872 5870 5868 5865 5863 5861 5860 5858 5856 5855 5853 5851 5850 5848 5847 5845 5843 5842 5841 5839 5838 5837 5837 5837 5837 5838 5838 5839 5839 5839 5840 5840 5840 5841 5841 5842 5843
5917 5917 5916 5915 5914 5913 5912 5911 5909 5908 5906 5906 5905 5904 5903 5902 5900 5899 5897 5896 5895 5893 5893 5892 5891 5890 5888 5886 5885 5883 5882 5881 5879 5877 5875 5873 5871 5868 5866 5864 5861 5859 5857 5855 5853 5852 5850 5848 5846 5845 5843 5842 5840 5838 5837 5835 5834 5833 5832 5831 5831 5831 5831 5831 5831 5832 5833 5833 5834 5834 5834 5835 5835 5836
5916 5915 5915 5914 5913 5912 5911 5910 5908 5907 5905 5904 5902 5901 5900 5899 5898 5897 5895 5894 5892 5891 5889 5888 5887 5886 5885 5883 5881 5880 5878 5877 5875 5873 5870 5868 5866 5863 5861 5859 5857 5855 5853 5851 5849 5847 5845 5843 5841 5840 5838 5836 5835 5833 5831 5830 5829 5828 5827 5826 5825 5824 5824 5824 5825 5825 5825 5826 5827 5827 5828 5828 5829 5829
5915 5914 5914 5913 5912 5911 5910 5908 5907 5906 5904 5903 5901 5900 5898 5897 5896 5894 5893 5892 5890 5889 5887 5885 5884 5882 5881 5879 5877 5876 5874 5873 5871 5869 5866 5863 5860 5858 5856 5855 5852 5850 5848 5846 5844 5842 5840 5838 5836 5834 5833 5831 5829 5827 5826 5824 5823 5822 5821 5820 5819 5818 5817 5817 5817 5818 5818 5818 5819 5820 5820 5821 5822 5822
5913 5913 5912 5912 5911 5910 5908 5907 5905 5904 5902 5901 5900 5898 5897 5895 5894 5892 5891 5890 5889 5887 5885 5883 5881 5879 5878 5876 5874 5872 5870 5868 5867 5864 5862 5858 5855 5853 5851 5849 5847 5844 5842 5841 5839 5836 5834 5832 5830 5828 5826 5825 5823 5822 5820 5818 5817 5815 5814 5813 5813 5812 5811 5810 5810 5810 5810 5811 5811 5811 5812 5813 5814 5814
5911 5911 5910 5910 5909 5908 5906 5905 5903 5902 5901 5899 5898 5897 5895 5893 5892 5890 5889 5887 5886 5885 5884 5882 5879 5877 5875 5873 5870 5868 5866 5864 5862 5859 5857 5854 5851 5848 5846 5844 5841 5838 5836 5835 5833 5831 5828 5826 5824 5822 5820 5818 5816 5815 5814 5812 5811 5809 5808 5807 5807 5806 5805 5804 5804 5803 5803 5803 5803 5804 5804 5805 5805 5806
5909 5908 5908 5908 5907 5906 5904 5902 5901 5900 5899 5898 5896 5894 5893 5891 5890 5888 5887 5885 5883 5882 5881 5880 5877 5875 5873 5870 5868 5865 5863 5860 5858 5855 5852 5850 5847 5844 5842 5839 5835 5833 5831 5829 5828 5825 5822 5820 5818 5816 5813 5811 5810 5808 5807 5806 5805 5803 5802 5802 5801 5800 5799 5799 5798 5798 5797 5796 5795 5796 5796 5797 5797 5798
5906 5906 5906 5906 5905 5903 5902 5900 5899 5898 5897 5895 5894 5892 5891 5889 5888 5886 5884 5882 5881 5880 5878 5876 5874 5872 5870 5867 5864 5862 5859 5856 5854 5851 5848 5845 5842 5839 5836 5833 5830 5827 5825 5824 5822 5819 5816 5814 5812 5810 5807 5805 5803 5802 5801 5799 5798 5797 5796 5796 5794 5793 5792 5792 5792 5791 5790 5789 5789 5789 5789 5790 5790 5791
5904 5904 5904 5903 5902 5901 5899 5898 5896 5895 5894 5893 5891 5890 5888 5887 5885 5883 5881 5880 5878 5876 5875 5873 5871 5869 5866 5863 5860 5858 5855 5852 5850 5847 5844 5842 5838 5835 5832 5828 5825 5822 5820 5818 5816 5814 5811 5808 5806 5804 5801 5798 5796 5795 5794 5793 5792 5791 5790 5789 5788 5786 5785 5785 5784 5784 5783 5783 5783 5783 5783 5783 5783 5784
5901 5901 5901 5901 5899 5898 5897 5895 5894 5892 5891 5891 5889 5888 5886 5884 5882 5880 5879 5877 5875 5873 5871 5869 5867 5865 5862 5859 5856 5854 5851 5849 5846 5843 5840 5837 5834 5831 5828 5824 5820 5817 5815 5813 5811 5809 5805 5802 5800 5798 5795 5792 5790 5789 5788 5786 5785 5784 5783 5782 5780 5779 5778 5777 5776 5776 5775 5776 5776 5776 5776 5776 5776 5777
5898 5898 5898 5897 5896 5895 5894 5893 5891 5890 5889 5889 5887 5885 5883 5881 5880 5878 5876 5874 5872 5870 5868 5866 5863 5861 5858 5856 5853 5850 5848 5845 5842 5839 5836 5833 5830 5827 5824 5820 5816 5813 5810 5808 5806 5804 5800 5797 5795 5792 5789 5786 5785 5783 5781 5779 5778 5777 5775 5774 5773 5772 5771 5769 5768 5768 5767 5767 5768 5768 5768 5768 5769 5769
5895 5895 5894 5894 5893 5892 5891 5890 5889 5888 5887 5886 5884 5883 5881 5879 5877 5875 5873 5871 5869 5867 5865 5862 5859 5857 5854 5852 5849 5847 5844 5841 5838 5835 5832 5829 5825 5822 5819 5816 5812 5809 5806 5804 5801 5799 5795 5791 5789 5787 5784 5781 5779 5777 5775 5773 5771 5770 5768 5767 5765 5764 5763 5762 5761 5760 5760 5759 5759 5760 5760 5760 5761 5761
5892 5892 5891 5890 5890 5889 5888 5887 5886 5885 5884 5882 5881 5879 5878 5875 5874 5872 5869 5867 5865 5863 5860 5858 5856 5854 5851 5848 5845 5843 5840 5837 5834 5831 5828 5824 5821 5818 5815 5812 5808 5804 5802 5799 5797 5794 5790 5786 5784 5782 5779 5776 5774 5772 5770 5767 5765 5763 5761 5759 5757 5756 5755 5754 5753 5753 5752 5752 5751 5751 5751 5752 5752 5753
5889 5888 5888 5887 5886 5885 5885 5884 5883 5882 5880 5879 5878 5876 5874 5872 5869 5867 5865 5863 5861 5858 5856 5854 5852 5850 5847 5844 5842 5839 5836 5833 5830 5827 5823 5820 5817 5813 5810 5807 5803 5800 5797 5795 5793 5790 5786 5783 5780 5778 5774 5772 5769 5766 5764 5762 5759 5757 5754 5752 5750 5748 5746 5745 5745 5744 5744 5744 5744 5743 5743 5743 5744 5744
5885 5885 5884 5884 5883 5882 5881 5880 5879 5878 5877 5876 5874 5872 5870 5867 5865 5863 5861 5858 5856 5854 5853 5851 5849 5846 5843 5841 5838 5835 5832 5829 5826 5822 5819 5816 5812 5809 5806 5802 5799 5796 5793 5790 5789 5786 5782 5779 5776 5773 5769 5766 5764 5761 5758 5755 5753 5750 5748 5745 5743 5740 5738 5737 5736 5736 5735 5735 5735 5735 5735 5735 5736 5736
5882 5881 5881 5880 5879 5878 5877 5876 5875 5875 5874 5872 5870 5868 5866 5863 5861 5859 5857 5855 5853 5851 5849 5847 5845 5842 5839 5837 5834 5831 5828 5825 5822 5818 5815 5812 5808 5805 5801 5798 5794 5791 5789 5787 5784 5781 5778 5774 5771 5768 5765 5762 5758 5755 5752 5749 5746 5743 5740 5738 5735 5733 5731 5730 5729 5728 5727 5727 5727 5727 5728 5728 5728 5729
5878 5878 5877 5876 5875 5874 5873 5872 5870 5870 5870 5868 5866 5864 5862 5860 5858 5856 5853 5851 5849 5847 5845 5843 5841 5838 5835 5833 5830 5827 5824 5821 5818 5815 5811 5808 5804 5800 5797 5794 5791 5787 5785 5783 5780 5776 5773 5770 5767 5764 5761 5757 5753 5750 5747 5743 5740 5737 5734 5731 5728 5726 5724 5723 5722 5721 5721 5720 5720 5720 5720 5721 5721 5721
5874 5874 5873 5872 5871 5870 5869 5868 5866 5866 5866 5864 5862 5860 5858 5856 5855 5853 5850 5848 5846 5844 5841 5839 5836 5834 5832 5829 5826 5823 5820 5817 5814 5811 5807 5803 5800 5796 5793 5790 5787 5784 5781 5778 5776 5772 5769 5766 5763 5760 5757 5752 5748 5744 5741 5737 5734 5731 5728 5725 5722 5720 5718 5717 5716 5715 5714 5714 5714 5713 5713 5713 5714 5715
5870 5870 5869 5868 5867 5866 5865 5864 5863 5863 5862 5860 5858 5856 5854 5853 5851 5849 5847 5844 5842 5839 5837 5835 5832 5830 5828 5825 5822 5819 5816 5813 5810 5807 5803 5799 5796 5792 5789 5786 5783 5780 5777 5775 5772 5768 5765 5761 5758 5755 5753 5749 5743 5739 5735 5732 5728 5725 5722 5720 5717 5715 5714 5712 5711 5710 5709 5708 5708 5707 5707 5707 5707 5708
5866 5865 5865 5864 5863 5862 5861 5861 5860 5860 5858 5856 5854 5853 5851 5849 5847 5846 5843 5841 5838 5835 5833 5831 5828 5826 5824 5821 5818 5815 5812 5809 5806 5802 5799 5795 5792 5789 5785 5782 5779 5776 5774 5771 5768 5765 5761 5757 5754 5751 5748 5745 5741 5735 5731 5727 5723 5720 5717 5715 5713 5711 5709 5708 5707 5705 5704 5703 5702 5702 5702 5701 5701 5701
5861 5860 5860 5860 5859 5858 5857 5857 5857 5856 5855 5853 5851 5849 5848 5846 5844 5842 5839 5837 5834 5831 5829 5827 5825 5822 5820 5817 5814 5811 5808 5805 5802 5798 5795 5791 5788 5785 5781 5778 5776 5773 5770 5768 5765 5761 5757 5753 5750 5747 5744 5741 5737 5732 5727 5723 5719 5716 5713 5711 5709 5707 5705 5703 5702 5701 5700 5699 5698 5697 5696 5696 5695 5696
5856 5855 5855 5855 5855 5854 5853 5853 5853 5852 5851 5849 5847 5846 5844 5842 5839 5838 5835 5832 5830 5827 5825 5823 5821 5818 5816 5813 5810 5807 5804 5801 5798 5794 5791 5787 5784 5781 5777 5775 5772 5769 5766 5764 5760 5757 5754 5750 5747 5744 5740 5737 5733 5729 5724 5720 5716 5713 5710 5707 5705 5703 5701 5699 5698 5696 5695 5694 5693 5692 5691 5690 5690 5690
5850 5849 5849 5850 5849 5848 5848 5848 5847 5846 5845 5844 5843 5842 5840 5838 5835 5833 5831 5828 5826 5823 5821 5819 5817 5814 5812 5809 5806 5803 5800 5797 5793 5790 5787 5783 5780 5777 5774 5772 5769 5766 5763 5760 5757 5754 5751 5747 5743 5740 5736 5733 5729 5725 5721 5717 5713 5710 5707 5704 5701 5698 5696 5695 5693 5691 5690 5688 5687 5687 5686 5685 5684 5683
5843 5843 5844 5843 5843 5843 5843 5842 5841 5841 5839 5838 5838 5837 5836 5833 5831 5829 5827 5824 5822 5819 5817 5815 5813 5810 5808 5805 5803 5799 5796 5792 5789 5786 5783 5779 5776 5774 5771 5769 5766 5763 5760 5757 5754 5751 5747 5743 5739 5736 5732 5729 5726 5722 5718 5714 5710 5707 5704 5701 5697 5694 5691 5689 5688 5686 5684 5682 5681 5681 5680 5679 5678 5677
5837 5837 5837 5837 5837 5837 5836 5836 5835 5835 5833 5832 5832 5832 5831 5829 5827 5825 5822 5820 5817 5815 5813 5811 5809 5806 5804 5801 5799 5795 5791 5788 5785 5782 5779 5776 5773 5770 5768 5765 5763 5760 5757 5754 5751 5747 5744 5740 5736 5733 5729 5726 5722 5718 5715 5711 5707 5703 5700 5697 5694 5691 5688 5685 5682 5680 5678 5676 5675 5675 5673 5672 5671 5670
5830 5830 5830 5831 5831 5831 5829 5829 5829 5828 5827 5827 5827 5826 5825 5823 5822 5820 5817 5815 5813 5811 5809 5807 5805 5802 5800 5798 5794 5791 5787 5784 5781 5778 5775 5772 5770 5767 5764 5761 5759 5756 5754 5751 5748 5744 5740 5736 5733 5730 5726 5723 5719 5715 5711 5707 5703 5700 5696 5693 5691 5688 5684 5681 5678 5674 5671 5669 5669 5668 5667 5665 5664 5663
5823 5823 5824 5825 5825 5824 5822 5822 5823 5822 5821 5820 5821 5820 5819 5818 5816 5815 5813 5811 5808 5806 5805 5803 5801 5798 5796 5794 5790 5786 5783 5780 5777 5774 5771 5768 5766 5763 5760 5757 5754 5752 5751 5748 5745 5741 5737 5733 5730 5727 5724 5720 5716 5711 5707 5703 5700 5696 5693 5689 5686 5683 5680 5677 5673 5670 5665 5662 5661 5661 5660 5659 5657 5656
5816 5816 5817 5817 5817 5816 5816 5816 5816 5815 5814 5814 5815 5814 5813 5812 5810 5809 5808 5806 5804 5802 5800 5798 5797 5794 5792 5789 5786 5782 5779 5776 5773 5770 5767 5764 5762 5759 5756 5753 5751 5748 5746 5744 5741 5737 5734 5730 5727 5724 5721 5718 5713 5709 5704 5700 5696 5692 5689 5685 5682 5679 5675 5672 5668 5665 5661 5657 5655 5654 5653 5652 5651 5649
5807 5808 5809 5809 5809 5809 5809 5809 5808 5808 5808 5809 5810 5809 5807 5806 5805 5804 5803 5801 5799 5797 5795 5794 5792 5790 5788 5785 5781 5777 5775 5772 5769 5766 5763 5761 5759 5756 5753 5750 5748 5745 5743 5740 5737 5733 5730 5727 5724 5721 5718 5714 5710 5706 5701 5697 5692 5688 5684 5681 5678 5675 5671 5666 5663 5659 5656 5652 5650 5649 5648 5646 5644 5643
5797 5799 5799 5800 5802 5803 5803 5802 5801 5801 5802 5804 5804 5802 5801 5800 5799 5798 5797 5795 5794 5792 5791 5789 5788 5786 5783 5780 5776 5773 5770 5768 5765 5762 5760 5758 5755 5753 5750 5748 5746 5743 5741 5738 5734 5731 5727 5724 5721 5718 5714 5711 5707 5702 5698 5694 5689 5685 5681 5676 5673 5670 5667 5662 5658 5654 5650 5647 5645 5644 5643 5641 5639 5637
5787 5790 5791 5793 5794 5795 5796 5796 5794 5795 5796 5797 5797 5796 5795 5794 5793 5793 5792 5790 5788 5787 5786 5785 5783 5781 5779 5776 5772 5768 5766 5763 5761 5759 5757 5754 5752 5750 5747 5745 5743 5741 5739 5736 5733 5730 5726 5722 5718 5714 5710 5706 5702 5698 5694 5689 5685 5681 5677 5673 5669 5666 5663 5659 5655 5651 5647 5644 5641 5639 5638 5637 5635 5632
5779 5781 5783 5785 5786 5788 5790 5789 5788 5788 5789 5790 5790 5789 5789 5788 5788 5787 5786 5784 5783 5782 5781 5780 5778 5776 5774 5771 5767 5764 5761 5759 5757 5756 5753 5751 5749 5746 5745 5743 5741 5738 5736 5734 5731 5728 5724 5720 5716 5712 5707 5703 5698 5693 5689 5685 5681 5677 5673 5670 5666 5663 5660 5657 5653 5649 5645 5642 5639 5636 5634 5633 5631 5629
5770 5773 5775 5776 5778 5780 5781 5782 5782 5782 5782 5783 5783 5783 5782 5782 5782 5781 5780 5779 5778 5777 5776 5775 5774 5772 5769 5766 5762 5759 5757 5755 5753 5752 5750 5747 5745 5743 5742 5740 5738 5736 5733 5731 5729 5725 5722 5718 5714 5710 5705 5700 5695 5690 5685 5681 5677 5673 5670 5667 5663 5660 5657 5654 5650 5646 5642 5639 5636 5632 5630 5629 5627 5625
5763 5766 5767 5768 5770 5771 5773 5774 5775 5775 5775 5776 5776 5776 5776 5776 5776 5775 5775 5774 5773 5772 5771 5770 5769 5767 5765 5761 5757 5755 5753 5751 5749 5748 5746 5744 5742 5740 5739 5738 5735 5733 5731 5728 5726 5723 5720 5716 5712 5708 5703 5698 5693 5688 5683 5679 5674 5670 5666 5663 5660 5657 5654 5650 5647 5643 5640 5636 5633 5630 5627 5625 5623 5621
5756 5757 5759 5760 5761 5762 5765 5768 5770 5769 5769 5769 5769 5769 5769 5770 5770 5769 5769 5768 5768 5767 5766 5765 5764 5762 5760 5756 5753 5750 5748 5747 5745 5744 5742 5740 5738 5737 5736 5735 5733 5730 5728 5725 5723 5720 5717 5714 5710 5706 5702 5696 5691 5686 5681 5677 5673 5668 5664 5660 5656 5652 5649 5646 5643 5640 5636 5633 5630 5627 5624 5622 5619 5617
5747 5747 5749 5751 5752 5753 5757 5762 5763 5763 5762 5762 5762 5762 5763 5764 5764 5763 5763 5763 5762 5761 5761 5760 5759 5758 5755 5751 5748 5746 5744 5743 5742 5740 5738 5736 5735 5734 5733 5732 5730 5727 5724 5722 5720 5717 5714 5711 5708 5704 5699 5694 5689 5683 5679 5675 5671 5666 5662 5658 5653 5649 5644 5641 5638 5635 5632 5629 5626 5624 5621 5618 5615 5612
5739 5742 5744 5745 5745 5747 5751 5754 5755 5755 5755 5756 5756 5756 5757 5758 5758 5758 5757 5757 5757 5756 5756 5755 5754 5752 5750 5746 5744 5742 5740 5739 5738 5736 5734 5733 5732 5731 5730 5729 5727 5724 5721 5719 5717 5714 5712 5709 5706 5702 5697 5692 5687 5681 5677 5672 5668 5664 5660 5655 5651 5646 5642 5637 5634 5630 5628 5625 5623 5620 5617 5614 5611 5608
5731 5736 5739 5739 5739 5741 5744 5747 5748 5748 5748 5749 5750 5750 5751 5752 5752 5752 5752 5752 5752 5751 5751 5750 5749 5747 5744 5741 5739 5737 5736 5735 5733 5732 5731 5730 5729 5728 5727 5726 5724 5721 5719 5716 5714 5712 5709 5706 5703 5699 5695 5690 5685 5680 5675 5670 5666 5662 5658 5653 5649 5645 5640 5635 5631 5626 5623 5620 5617 5614 5611 5607 5604 5600
5726 5731 5734 5735 5734 5735 5737 5739 5740 5741 5741 5742 5743 5744 5745 5746 5746 5746 5746 5746 5746 5746 5745 5745 5744 5742 5739 5737 5735 5733 5732 5731 5729 5728 5727 5727 5726 5725 5724 5723 5721 5718 5716 5714 5711 5709 5706 5704 5701 5697 5692 5688 5683 5678 5673 5668 5664 5660 5656 5652 5648 5644 5639 5634 5629 5624 5619 5616 5612 5608 5604 5599 5595 5590
5722 5725 5728 5730 5730 5731 5731 5731 5732 5733 5734 5736 5737 5738 5739 5739 5740 5740 5741 5741 5741 5741 5740 5740 5739 5737 5735 5732 5730 5729 5727 5726 5725 5724 5724 5723 5722 5721 5720 5719 5718 5716 5713 5711 5709 5706 5704 5701 5698 5695 5690 5685 5681 5676 5671 5666 5662 5658 5654 5650 5646 5643 5639 5635 5630 5624 5619 5614 5610 5606 5602 5597 5591 5586
5715 5717 5721 5723 5724 5724 5724 5725 5726 5727 5729 5730 5732 5733 5733 5733 5734 5735 5735 5735 5735 5735 5735 5735 5734 5732 5730 5728 5726 5724 5723 5722 5721 5721 5720 5719 5719 5718 5717 5716 5714 5713 5711 5708 5706 5703 5701 5698 5695 5692 5688 5683 5679 5674 5669 5665 5660 5656 5652 5648 5644 5641 5637 5634 5630 5625 5620 5615 5611 5606 5602 5597 5592 5587
Wind_Speed
13 14 15 16 16 15 15 14 13 13 12 11 11 11 11 11 12 13 14 14 15 16 17 18 18 18 19 20 21 22 22 22 23 24 26 27 28 28 29 29 30 30 30 30 31 32 32 32 32 33 34 35 36 37 38 38 39 38 38 37 37 36 36 36 35 35 34 34 34 34 34 35 35 36
15 17 17 17 16 16 15 16 15 15 14 13 12 12 11 11 11 12 13 13 14 15 16 16 16 18 19 19 20 21 22 23 25 27 28 30 31 31 31 31 32 32 31 31 31 31 31 31 32 33 33 34 35 36 37 38 38 39 39 39 39 39 38 38 37 37 36 36 36 35 35 35 36 36
15 17 17 16 16 16 16 17 18 17 16 15 14 14 14 13 13 14 15 15 15 15 15 14 15 17 18 19 20 20 22 24 26 28 30 30 31 32 33 34 34 34 33 32 32 31 31 31 32 33 34 35 35 36 37 38 38 38 39 39 39 39 40 40 40 39 38 38 38 37 37 36 36 37
15 15 16 16 16 16 17 18 19 19 18 16 15 15 15 16 16 16 17 17 17 16 15 14 14 15 17 18 19 20 22 24 26 28 30 31 32 33 33 35 35 35 35 34 34 33 33 32 32 33 34 36 37 37 38 39 39 39 39 39 40 40 40 41 41 42 41 41 40 40 39 38 38 37
15 15 16 16 17 17 17 18 19 19 18 17 16 16 16 17 17 17 18 18 19 18 18 17 17 17 18 19 20 21 22 24 26 28 30 31 32 33 34 35 36 37 37 37 36 36 35 35 34 34 34 35 37 39 40 40 41 42 41 40 40 40 41 41 42 42 43 43 43 43 43 43 43 41
16 17 17 17 17 17 18 18 19 19 18 18 18 18 18 18 18 18 19 19 20 21 21 21 20 20 21 22 22 23 24 25 27 29 31 32 33 34 35 36 38 39 39 39 38 38 37 36 36 35 35 35 36 38 40 41 41 42 43 43 42 41 41 41 42 43 43 44 44 45 46 46 47 47
17 18 18 18 18 18 19 20 20 20 19 19 19 20 19 19 18 19 20 20 21 22 22 23 23 23 23 24 25 26 27 28 29 31 33 34 35 36 37 38 39 40 40 39 39 38 38 38 37 36 36 36 36 37 39 40 40 41 42 42 42 42 41 41 41 42 43 44 45 46 47 48 48 49
17 18 18 18 18 18 19 21 21 20 20 20 20 21 21 20 19 19 20 20 20 22 23 24 25 26 26 27 28 29 30 30 31 33 35 37 38 39 39 40 41 41 40 40 40 39 39 39 39 38 37 37 37 37 38 39 40 41 41 42 42 43 43 43 42 42 43 43 44 45 46 48 49 50
18 18 18 18 18 18 19 21 20 20 20 20 21 21 22 21 20 19 19 19 20 21 23 24 26 28 29 30 31 32 33 33 34 35 37 39 41 42 42 42 43 43 42 41 41 41 41 41 40 39 38 37 37 37 37 38 39 41 42 42 42 43 44 44 43 43 43 44 44 45 45 47 48 49
20 19 19 19 18 18 19 20 19 19 20 21 21 22 23 22 21 21 20 20 20 21 22 24 26 28 29 31 33 34 34 35 36 38 39 41 43 44 44 44 45 45 44 43 43 43 43 42 40 39 38 38 37 36 36 37 38 40 41 42 43 43 43 43 43 42 43 45 45 45 45 46 47 48
21 21 20 20 19 18 19 19 20 22 22 22 22 22 23 23 22 22 22 21 22 22 23 24 26 28 29 31 33 34 35 36 38 40 41 42 44 45 45 46 47 47 46 44 44 44 44 43 42 40 40 39 39 38 37 37 38 40 42 45 46 45 44 43 42 42 43 44 45 45 45 46 47 47
21 21 21 21 20 19 20 21 24 25 23 21 22 22 21 22 22 23 23 23 23 23 24 26 27 29 31 32 33 34 36 38 40 42 43 44 45 46 47 48 49 48 47 45 43 43 43 43 41 40 40 40 39 38 38 38 39 41 43 45 47 47 46 45 44 44 45 44 44 44 44 44 45 44
21 22 22 21 21 21 21 22 23 23 21 20 21 22 22 23 24 24 24 23 24 25 26 28 29 30 32 34 35 36 38 40 42 44 45 45 46 47 48 48 49 48 46 44 41 40 41 41 40 40 40 41 41 40 39 39 40 40 41 43 44 45 46 46 46 46 46 46 45 45 44 44 45 45
21 22 21 21 21 21 20 20 21 22 22 21 21 22 23 24 25 25 24 24 25 26 27 29 30 31 33 34 36 38 40 42 44 45 46 47 48 48 48 47 46 46 44 42 40 39 40 40 40 39 40 41 41 41 41 42 41 41 41 42 43 44 45 46 46 46 46 47 47 46 46 46 46 47
21 22 21 20 21 20 19 20 22 24 23 22 21 23 23 24 25 25 25 25 26 27 29 30 31 32 34 35 37 39 41 43 45 46 47 48 49 48 47 45 44 43 43 42 40 39 39 40 39 38 39 41 41 41 42 43 43 42 42 42 43 44 45 46 47 47 47 47 47 47 47 47 47 49
22 22 21 20 20 21 21 21 22 23 23 22 22 23 24 25 26 26 26 26 27 28 30 31 32 33 35 37 39 41 42 44 45 47 48 49 49 48 46 45 44 43 43 42 40 39 39 39 39 38 39 40 41 41 42 42 43 43 43 43 43 43 44 45 46 46 48 48 49 49 49 48 48 47
23 23 22 20 20 22 23 23 23 23 23 23 23 24 26 27 27 27 27 28 29 30 31 32 33 34 36 38 40 42 43 45 46 47 49 49 49 48 46 45 44 44 42 41 40 38 38 38 38 38 39 40 41 42 42 43 43 44 44 44 44 44 44 44 44 45 45 47 48 49 49 50 49 49
24 24 23 21 21 23 24 25 25 24 24 24 25 26 27 28 29 29 29 29 30 31 32 33 34 35 37 39 41 42 44 45 46 47 48 49 48 47 45 44 43 42 41 40 38 36 36 37 38 38 40 41 42 43 43 44 44 44 45 45 46 46 46 45 44 44 44 44 45 46 47 48 49 49
26 26 24 22 23 25 26 27 26 25 24 25 26 28 29 31 31 31 31 31 32 32 33 34 35 37 38 40 41 43 44 45 46 47 48 49 48 46 44 42 41 40 39 37 36 35 36 38 39 40 41 42 43 44 44 44 45 45 45 46 46 46 46 46 45 44 44 43 43 43 44 45 46 47
28 27 25 24 25 26 28 29 29 26 24 26 28 30 32 33 33 33 33 33 32 32 33 34 36 38 39 41 42 43 44 45 46 47 48 47 46 45 43 41 39 38 37 36 36 37 39 41 41 42 43 43 44 44 45 45 45 45 45 45 45 45 45 45 45 44 43 42 42 41 41 42 43 44
30 28 27 26 27 28 30 31 31 27 26 28 30 32 33 34 35 35 34 33 32 32 34 35 37 38 40 41 42 43 43 45 46 47 47 46 45 43 41 38 37 36 36 37 38 40 41 42 42 42 42 43 44 45 45 45 45 45 45 44 43 42 41 41 41 41 40 40 40 39 39 39 40 41
32 30 29 28 30 31 32 33 32 29 27 29 32 33 34 35 36 36 35 33 33 34 35 36 37 39 40 42 42 42 43 44 46 46 45 44 43 41 39 36 35 36 38 39 40 41 41 41 42 42 42 43 44 45 45 45 45 44 43 41 40 38 37 36 35 35 35 36 36 37 37 37 37 38
33 33 31 31 32 34 34 33 32 30 30 31 34 34 34 35 37 37 35 34 34 35 36 37 38 40 41 42 42 42 43 44 45 44 43 43 41 40 37 36 35 37 39 41 41 41 41 41 42 42 43 42 43 44 44 44 44 43 41 39 37 36 34 32 31 30 31 32 33 34 35 35 36 35
35 35 33 32 34 36 36 35 34 33 33 35 36 36 35 36 37 37 36 35 35 36 37 38 39 40 41 41 41 41 42 43 43 43 42 41 40 39 37 36 37 39 40 40 41 40 40 41 42 42 42 42 42 43 42 41 41 41 39 37 36 34 33 31 30 29 29 30 31 32 33 33 34 34
37 37 35 35 36 37 37 36 35 35 36 39 40 38 36 36 38 38 37 36 36 37 38 39 40 41 41 41 40 41 41 41 41 42 42 41 39 38 37 37 38 40 40 40 41 41 41 41 41 41 41 41 42 42 40 38 38 37 37 35 34 33 32 31 31 30 30 30 31 31 32 33 33 34
39 39 38 37 39 39 38 37 37 37 39 42 43 40 38 37 38 39 38 38 38 38 39 40 40 41 41 40 40 40 40 40 41 42 41 39 38 37 36 37 38 39 40 41 41 41 41 41 41 41 40 40 41 40 38 35 34 34 34 34 33 32 32 31 31 31 32 32 32 32 32 33 34 34
41 43 42 41 41 42 40 40 40 39 42 45 45 42 40 39 39 39 39 39 39 40 40 40 40 41 40 40 40 39 39 39 41 41 39 38 36 35 36 37 38 39 40 41 42 42 41 41 41 41 40 40 40 38 35 32 32 32 32 32 33 33 32 32 31 32 33 33 33 33 34 34 35 36
45 46 46 45 45 45 44 44 44 45 47 49 46 43 42 41 39 39 40 40 40 41 41 41 41 40 40 40 39 38 38 39 39 39 38 37 35 35 36 37 38 39 41 42 42 42 42 42 41 40 40 40 39 37 33 31 31 30 30 30 31 32 33 33 33 34 35 35 35 35 36 36 37 38
48 49 50 49 48 47 48 48 47 49 51 49 44 43 44 42 40 39 41 41 41 41 41 41 41 40 40 40 38 36 36 37 37 37 37 36 34 35 36 37 38 40 42 42 41 41 41 41 40 39 39 39 38 36 33 31 31 31 30 29 29 30 32 33 34 35 36 37 37 36 37 38 39 39
52 53 53 52 51 51 53 52 50 51 49 44 41 42 43 43 42 40 41 42 42 42 42 41 41 40 40 40 37 35 35 36 35 35 35 34 34 34 36 37 39 40 41 40 39 40 40 40 39 38 38 38 38 36 34 32 31 30 30 30 30 30 30 32 33 35 37 38 38 37 38 39 40 41
56 56 55 55 55 55 57 56 53 50 46 40 40 42 43 44 44 42 42 43 43 42 42 42 41 40 40 39 35 33 34 35 34 34 34 33 33 34 35 37 39 40 40 39 38 39 39 39 38 37 36 37 37 36 35 33 31 30 30 31 32 32 32 33 32 33 35 37 37 37 38 39 40 41
60 59 58 59 59 59 60 59 57 54 52 48 47 46 45 46 46 43 42 44 43 42 42 42 40 40 40 38 34 32 33 33 33 32 32 32 32 34 35 37 38 38 38 38 37 38 38 38 37 36 35 36 36 35 35 33 32 32 31 32 33 34 35 35 34 33 33 34 35 35 36 37 39 41
64 63 63 63 63 62 60 60 59 59 59 55 51 48 47 47 47 45 43 43 43 42 42 42 40 40 39 36 32 30 31 32 31 31 30 30 32 33 35 36 36 36 36 37 37 38 38 38 37 36 35 35 35 35 35 34 33 33 33 34 35 36 37 38 37 36 34 33 32 30 30 32 35 38
65 66 68 67 66 62 59 58 58 59 58 52 48 47 47 47 48 47 44 42 42 42 42 41 40 39 39 35 30 29 30 31 30 29 28 29 31 32 34 35 34 34 34 35 36 38 39 39 38 37 35 35 35 35 35 35 35 35 35 36 37 38 39 39 38 37 36 35 33 30 27 27 30 33
67 68 69 69 67 62 57 56 56 56 55 52 49 48 46 47 48 46 42 41 42 42 42 41 39 39 38 33 28 28 29 29 28 27 28 29 30 31 32 33 32 32 33 34 35 37 38 39 39 38 37 36 36 36 36 36 37 37 36 37 38 39 39 39 38 37 36 34 33 31 28 26 27 29
70 70 71 70 67 62 57 53 51 50 49 49 49 48 46 46 46 43 41 41 41 41 41 40 39 38 37 31 27 27 27 27 27 26 27 28 29 30 30 30 30 30 31 33 35 36 37 39 39 39 38 36 36 36 37 37 38 38 38 37 38 38 39 38 37 36 34 31 30 29 28 26 25 27
70 69 69 67 63 61 59 53 47 45 45 45 46 45 44 44 44 43 41 41 41 40 40 39 38 38 36 30 26 26 26 26 26 26 26 27 28 28 29 28 28 29 30 32 34 36 37 38 39 39 38 37 36 36 37 37 38 39 39 39 38 38 38 38 37 35 32 30 29 28 28 26 25 26
62 62 63 62 60 61 61 54 45 42 43 43 42 42 42 43 44 43 41 41 39 39 39 39 38 37 34 28 25 25 25 25 25 25 25 26 26 27 27 26 27 28 30 32 34 35 37 38 39 39 39 38 37 36 36 37 38 39 40 41 40 39 39 39 38 35 32 29 28 28 28 28 27 27
60 62 62 62 61 62 62 58 48 41 41 43 44 43 42 43 44 42 40 39 38 38 38 38 38 36 32 27 24 24 24 24 24 24 24 25 25 26 26 26 26 28 30 32 34 35 37 38 39 40 40 40 39 38 36 36 37 39 40 41 42 41 41 40 39 36 33 30 28 28 28 28 28 29
64 65 64 63 62 60 59 58 52 46 47 51 51 46 43 42 42 40 39 38 37 38 38 38 37 35 31 25 23 23 23 23 23 23 24 24 25 25 25 25 26 28 30 32 34 36 37 38 39 40 40 40 40 40 38 36 36 38 39 40 41 42 43 43 41 38 35 32 30 29 29 28 29 30
63 61 61 60 60 55 51 52 53 53 55 57 53 46 42 42 40 38 37 37 37 38 38 38 37 34 29 25 23 22 22 22 22 22 23 24 24 25 25 25 26 28 29 32 34 35 37 38 39 40 40 41 41 41 39 37 36 37 39 40 41 42 43 43 43 41 38 34 32 31 30 30 31 32
63 60 59 57 55 50 46 48 54 57 57 54 49 44 42 40 38 37 36 36 36 37 38 37 36 32 28 24 23 22 21 21 21 22 23 24 24 25 25 26 26 27 29 31 33 35 37 38 39 40 40 41 41 41 40 38 37 37 38 40 41 42 42 43 44 44 42 39 37 36 35 36 37 37
54 52 51 51 51 49 49 52 55 55 52 49 46 43 41 39 37 36 36 36 36 38 38 37 35 31 27 24 22 21 21 20 21 21 23 24 24 25 25 26 26 27 29 31 33 35 36 38 39 39 40 40 41 42 41 39 38 37 37 39 40 41 41 42 43 44 43 42 41 41 41 42 44 45
44 44 46 48 50 51 54 54 51 48 47 46 44 43 40 37 35 34 35 35 36 37 37 36 34 31 27 24 23 21 20 20 20 21 23 24 25 25 26 26 26 28 29 31 32 34 36 37 38 39 40 40 41 41 41 40 39 38 37 38 39 40 40 40 41 42 42 42 41 41 42 44 45 47
50 50 49 48 48 50 51 49 47 45 46 45 44 41 37 34 33 34 35 35 36 37 36 35 33 30 27 24 23 22 20 20 20 22 23 25 25 25 26 26 27 28 29 31 32 34 35 37 38 39 40 40 40 41 41 41 40 39 38 38 39 40 40 40 40 40 40 40 40 40 40 41 43 45
Wind_Direction
354 349 344 340 338 338 340 342 340 335 332 331 332 331 330 327 323 320 320 320 321 320 319 317 316 317 321 323 325 325 324 323 322 321 322 323 323 322 320 317 314 312 309 305 302 300 297 295 292 289 287 286 284 281 278 275 272 269 267 264 263 262 262 262 262 262 262 261 261 260 259 259 258 258
349 345 342 339 336 335 337 338 339 337 333 328 326 326 327 327 326 324 323 323 323 322 322 320 318 318 320 321 323 323 322 322 322 322 323 322 321 320 317 315 313 310 307 303 301 299 298 296 293 290 287 285 284 282 280 278 275 273 270 268 265 263 262 262 262 261 262 262 262 261 260 259 258 257
345 344 344 342 339 337 338 338 337 336 334 331 327 323 324 325 326 327 328 328 329 329 327 324 320 320 321 321 322 323 322 322 322 321 321 320 318 317 316 314 312 309 306 303 301 299 297 296 294 292 289 286 284 282 281 279 277 275 273 271 268 266 264 262 262 261 261 261 261 261 261 260 259 257
342 345 345 343 341 341 342 341 338 334 333 333 331 325 323 323 325 327 328 328 330 330 328 324 321 320 320 320 320 321 320 319 319 317 316 316 315 314 313 312 310 308 306 304 302 300 298 296 294 292 290 288 286 283 281 279 278 276 274 273 271 269 267 264 263 262 261 260 260 259 259 259 259 258
339 342 342 341 341 342 343 341 337 334 333 334 334 330 327 325 325 327 327 328 328 327 325 325 324 323 320 318 318 318 317 316 316 315 314 314 313 312 311 310 309 307 306 305 303 301 300 298 296 294 291 290 289 286 283 280 278 277 275 274 272 271 269 267 265 264 262 261 260 260 259 258 258 257
335 335 335 337 339 341 343 341 337 335 334 334 334 333 332 328 326 325 325 326 325 324 324 325 326 325 321 319 319 318 318 318 317 315 314 312 312 311 311 310 309 308 307 306 305 303 302 300 298 296 294 291 289 288 286 283 280 278 277 276 276 275 272 270 268 266 264 263 261 260 260 259 258 257
329 329 329 332 336 340 343 341 338 334 333 334 334 334 334 331 328 325 323 324 323 322 323 325 325 324 322 321 320 319 319 319 318 317 315 313 313 312 312 311 311 310 309 308 307 306 304 302 300 298 296 294 291 288 287 285 282 279 277 275 275 274 273 272 270 268 266 264 262 261 260 260 260 259
323 325 326 328 331 336 339 340 338 335 333 333 331 330 332 332 330 326 323 323 322 321 322 324 324 324 323 322 321 320 320 320 319 317 316 315 314 313 313 313 312 311 310 309 309 308 305 304 302 301 299 296 293 289 286 284 281 278 274 272 271 271 272 272 271 268 267 265 263 262 260 260 259 259
318 322 323 324 329 334 335 337 337 335 333 333 330 327 327 328 327 325 322 321 321 320 320 321 321 321 321 321 320 321 321 321 320 319 317 316 314 314 314 314 313 311 311 311 310 308 307 305 304 302 300 297 293 289 286 282 279 276 273 271 270 270 270 271 271 269 268 266 264 262 260 259 259 259
313 318 319 321 329 333 332 334 337 337 335 331 327 324 321 321 322 322 321 321 320 319 318 317 316 316 317 318 318 320 322 322 321 319 317 316 314 313 314 314 312 312 312 312 311 310 308 307 305 303 301 297 293 289 285 280 277 274 271 270 270 270 270 271 272 272 271 269 266 264 262 260 259 259
309 313 314 319 327 329 327 328 333 336 336 331 326 320 316 316 318 320 320 320 319 318 316 314 312 313 314 315 317 319 321 321 320 318 316 315 314 314 314 314 312 312 313 313 312 311 309 307 305 303 301 297 294 291 286 280 276 273 271 272 274 274 273 272 273 274 274 273 270 267 264 262 260 259
304 306 309 315 322 324 322 322 324 327 329 329 325 319 314 314 315 317 318 319 318 317 314 312 311 312 313 314 317 320 320 320 318 316 315 315 315 315 315 314 313 313 314 314 313 311 309 307 306 304 302 299 297 294 289 284 279 276 276 276 276 276 276 275 274 274 274 274 273 269 266 263 258 256
298 301 305 312 317 320 321 324 325 324 326 328 325 317 312 311 313 316 318 317 316 314 312 311 312 313 314 316 319 320 319 318 317 315 314 315 315 316 316 315 314 314 315 315 314 312 310 308 306 304 301 299 297 295 292 288 285 282 280 279 277 276 277 277 276 274 272 272 271 270 267 262 257 252
292 296 301 309 314 318 322 324 323 323 324 326 323 316 310 308 310 314 317 316 314 312 311 310 312 313 315 317 318 318 317 316 315 314 315 316 316 316 316 316 315 316 316 316 315 312 309 306 304 302 300 298 297 296 294 291 288 286 283 280 279 277 276 276 275 273 272 271 270 269 268 265 261 256
288 292 298 306 312 316 318 317 317 319 322 324 322 316 310 307 309 313 315 314 312 310 310 310 312 314 316 316 316 316 316 315 315 315 316 316 316 316 317 317 317 317 316 315 314 311 308 305 305 304 302 300 300 299 297 295 293 291 288 285 282 280 277 276 275 273 272 271 269 268 268 267 265 262
283 287 294 302 309 312 313 314 315 317 321 323 321 315 310 307 309 312 314 313 311 310 310 311 313 315 315 315 315 315 315 315 315 316 316 316 317 317 318 319 318 317 315 314 313 312 310 308 308 308 306 305 304 303 301 299 298 296 294 291 287 284 280 278 276 274 273 271 270 268 267 266 265 263
278 282 288 296 304 307 309 311 313 315 318 320 319 314 311 310 311 313 314 313 311 311 311 312 314 314 314 314 315 315 315 315 316 317 317 317 318 318 319 319 317 316 315 314 314 314 312 311 311 311 309 308 307 305 303 301 300 298 296 294 291 288 284 281 278 275 273 271 270 269 267 266 265 263
272 277 282 289 296 300 304 306 308 311 315 318 316 313 313 314 316 316 313 311 311 311 312 313 313 313 313 314 315 315 315 316 317 318 318 318 319 319 319 318 317 316 315 315 316 315 313 312 313 312 310 309 308 306 304 303 301 299 296 294 292 289 287 284 281 278 275 272 270 269 268 266 265 264
268 272 277 283 289 294 298 300 302 307 313 315 313 313 315 318 319 317 313 311 311 311 312 311 311 312 313 314 315 315 316 317 318 319 319 319 320 320 319 319 318 317 316 317 318 317 315 314 315 314 313 311 309 307 306 304 302 300 298 295 292 289 286 284 281 279 277 275 272 270 268 267 265 264
266 269 274 278 283 288 292 294 296 301 307 310 310 311 314 318 319 315 311 309 310 311 310 310 310 312 314 314 315 315 316 318 319 319 320 320 321 321 320 319 318 317 317 319 320 319 317 317 317 315 313 312 310 308 307 306 304 302 300 298 294 291 287 284 281 279 277 276 275 273 271 268 267 266
264 267 271 275 279 283 287 289 291 297 304 306 307 309 312 316 317 314 311 309 309 309 309 310 312 314 314 314 314 315 317 319 320 320 321 322 322 322 321 320 319 318 320 322 322 320 318 317 316 315 314 312 311 310 309 309 307 306 304 302 299 295 291 286 283 280 278 277 276 275 273 271 268 266
262 264 268 273 277 280 282 284 288 295 300 301 302 305 309 313 314 313 311 309 308 309 309 311 313 313 313 313 313 316 319 320 320 321 322 323 323 323 322 321 321 321 322 323 322 320 318 317 316 316 315 314 313 313 312 311 310 308 307 305 303 300 296 292 288 284 281 279 277 275 274 272 269 266
260 262 265 270 274 277 279 281 286 293 296 297 298 301 306 310 312 313 311 308 307 308 309 311 312 312 312 312 314 317 319 319 320 322 324 324 324 324 323 323 323 323 324 323 321 319 319 318 318 317 316 316 315 315 314 313 312 310 309 309 307 305 302 298 294 290 286 282 279 276 275 273 272 269
258 259 262 268 272 274 277 281 286 292 294 294 295 299 304 307 310 312 310 307 305 306 308 310 310 310 311 312 314 317 318 319 322 324 325 325 325 325 324 324 325 324 323 322 321 321 321 320 319 317 316 316 316 316 315 313 312 311 311 311 310 308 306 303 299 295 290 286 283 280 278 276 274 272
257 258 261 265 269 271 275 280 285 290 293 293 293 296 301 305 308 311 310 306 304 305 307 308 309 309 310 311 314 316 317 320 324 326 326 326 326 326 326 326 326 324 323 323 324 323 322 320 318 317 316 316 317 317 316 313 312 311 312 311 309 307 305 303 300 296 292 289 286 282 280 277 275 272
256 257 260 264 267 269 272 277 283 288 290 290 291 294 299 302 306 310 309 305 303 304 306 307 308 308 310 311 313 314 317 322 326 326 326 326 327 327 327 326 326 325 325 325 326 324 322 320 318 317 317 318 319 319 318 316 313 312 311 310 308 305 303 300 297 294 292 289 286 283 281 278 276 274
256 256 258 261 265 267 269 274 278 282 287 288 288 290 295 299 303 308 308 304 302 302 305 306 307 308 309 310 311 313 319 324 326 326 326 327 328 328 326 326 326 327 327 327 326 324 322 321 320 319 319 320 321 321 321 320 317 315 313 311 308 306 304 301 298 294 291 288 286 284 282 280 277 276
256 257 257 259 262 265 269 271 271 275 282 285 284 285 290 295 300 306 306 303 300 301 303 305 306 307 308 308 309 314 321 325 326 326 327 328 328 327 326 326 328 329 328 327 325 324 323 322 322 322 321 322 323 323 321 321 321 321 320 318 314 310 306 302 299 295 291 288 286 284 282 280 279 277
255 256 257 258 260 264 268 268 269 272 277 280 279 282 288 292 297 303 305 301 299 300 302 303 304 306 307 306 308 315 322 325 325 326 328 329 329 327 326 328 329 329 328 326 325 325 325 324 324 323 323 323 324 324 323 321 322 325 326 326 324 319 313 307 300 295 290 287 285 283 281 280 278 277
254 255 258 259 261 264 266 267 271 273 273 274 278 283 287 291 295 300 302 300 297 298 300 302 304 305 305 304 307 316 323 324 325 327 329 329 328 327 327 329 330 329 328 326 326 327 327 327 326 324 323 324 325 326 326 324 324 325 326 327 328 326 322 316 308 300 293 287 283 281 279 278 277 276
253 255 258 259 260 262 264 265 269 270 266 271 283 286 287 291 292 295 299 299 296 297 299 300 303 304 302 302 307 317 323 324 325 328 329 328 328 328 329 330 330 329 328 328 329 330 330 329 327 325 324 324 326 328 329 328 326 327 327 329 331 331 328 324 318 310 301 293 287 282 279 277 276 275
253 254 256 257 258 260 262 265 267 265 262 271 283 286 286 290 289 290 296 297 294 295 298 299 301 302 300 300 307 317 322 324 326 328 328 328 328 329 330 331 331 330 330 330 332 333 333 331 329 326 324 324 326 330 332 331 330 330 331 332 334 334 332 329 324 318 310 302 295 289 283 279 277 275
253 253 254 255 256 259 262 265 267 267 266 273 281 283 283 288 289 289 294 295 293 294 296 298 299 300 298 299 307 316 321 324 326 327 327 327 328 329 330 331 331 331 331 333 335 336 335 334 331 329 326 325 327 331 334 334 335 334 334 334 336 337 337 333 329 324 319 313 308 301 293 286 281 277
250 251 252 254 255 257 260 264 267 269 271 274 279 280 280 285 289 290 291 293 292 292 295 296 297 297 296 298 306 315 320 323 325 326 326 326 328 330 330 330 330 332 334 336 338 337 336 335 334 331 329 328 328 331 334 336 338 338 337 336 337 339 339 336 331 327 323 321 319 315 309 300 291 284
247 249 251 253 254 256 260 266 268 268 270 272 276 278 280 285 289 289 289 290 291 291 293 295 295 295 294 297 305 315 320 323 324 324 324 326 328 329 330 329 330 333 336 338 339 338 337 337 336 334 332 331 330 332 335 338 340 340 340 338 337 338 339 337 333 329 325 324 323 320 316 310 303 294
247 247 249 253 255 254 258 265 267 265 267 271 274 276 279 284 289 290 290 289 288 289 292 294 293 293 293 296 304 314 319 320 322 322 323 325 327 328 328 328 330 333 337 339 339 339 338 338 338 338 336 334 333 334 336 339 340 341 340 339 337 337 338 337 334 330 327 325 324 321 317 313 308 301
247 248 251 256 258 255 254 259 264 262 262 266 271 274 278 284 289 291 289 286 286 289 291 291 291 291 291 295 304 313 317 318 319 320 322 324 326 326 326 326 329 333 336 338 338 338 338 338 340 340 339 337 335 335 336 338 340 340 341 339 338 336 336 337 336 333 330 328 327 323 319 316 311 304
248 251 254 258 261 257 251 253 260 261 258 263 271 276 280 285 289 289 286 283 285 289 290 289 289 288 289 294 304 311 314 316 316 318 320 322 324 324 323 324 327 331 333 336 337 337 338 338 339 341 341 341 339 338 337 338 339 340 340 339 338 337 337 337 337 335 333 332 330 326 322 319 315 309
252 256 256 257 262 261 254 251 256 260 261 268 277 279 281 286 288 285 281 280 284 288 287 286 286 286 287 294 304 308 311 313 313 315 318 320 320 320 320 321 325 328 330 333 334 335 336 337 339 341 342 343 342 341 340 340 340 341 340 340 339 338 338 338 339 338 336 334 332 328 324 320 316 311
256 258 256 257 263 265 256 249 252 260 269 277 280 279 281 286 285 280 277 280 284 285 284 283 283 284 286 293 301 305 307 308 309 312 316 317 316 316 316 317 321 325 328 330 332 333 335 336 338 340 342 343 344 344 343 342 341 341 341 340 340 339 339 339 340 339 338 336 333 329 325 321 317 314
253 253 254 259 265 264 253 247 253 265 274 277 276 276 279 282 279 274 275 280 283 282 281 281 281 282 285 292 298 301 302 303 305 310 313 313 312 311 312 314 318 322 325 328 330 332 333 335 336 338 341 343 345 346 345 343 342 342 341 342 342 342 340 340 339 339 338 337 335 331 328 324 321 319
248 248 252 257 258 255 252 254 261 269 274 273 270 273 278 278 273 271 275 279 280 279 278 278 279 281 284 289 293 296 297 299 303 307 309 309 308 307 308 310 314 319 322 325 328 330 332 334 335 337 339 342 345 347 347 345 343 343 342 342 343 343 342 341 340 339 339 339 337 335 332 330 328 327
247 249 254 256 254 256 263 267 267 268 269 267 267 271 275 272 268 269 274 278 277 275 276 277 278 279 282 286 288 290 293 296 300 303 304 304 304 304 305 307 311 315 319 322 325 329 331 333 335 336 338 341 344 347 348 346 344 343 343 343 344 345 344 343 342 340 340 339 339 338 337 335 334 333
245 253 260 262 262 265 269 268 265 263 263 263 266 270 270 266 265 269 274 275 274 273 275 276 277 278 280 283 283 286 289 292 295 298 300 301 301 301 302 304 308 311 315 319 323 327 330 332 334 336 337 339 343 346 348 347 345 344 343 343 344 345 345 345 344 342 340 340 340 340 339 338 336 334
249 257 261 263 265 266 264 261 259 258 258 261 266 268 264 260 264 270 273 272 272 272 273 274 275 277 278 279 279 282 285 287 290 293 295 297 299 299 299 301 304 307 311 316 320 325 328 331 333 335 336 338 341 345 347 348 346 345 344 343 343 345 346 346 345 343 342 340 340 339 339 338 336 334